Montgomery, NY

6:33 AM EST on December 18, 2017 (GMT -0500)
Orange County

Weather History for KMGJ - June, 2013

Change the Weather History Date:

Monday, June 10, 2013

  Actual Average (KSWF) Record (KSWF)
Temperature  
Mean Temperature 64 °F -  
Max Temperature 70 °F 73 °F 94 °F (1984)
Min Temperature 57 °F 53 °F 37 °F (1975)
Degree Days  
Heating Degree Days 2    
Growing Degree Days 14 (Base 50)    
Moisture  
Dew Point 61 °F    
Average Humidity 91    
Maximum Humidity 100    
Minimum Humidity 78    
Precipitation  
Precipitation 1.43 in - - ()
Sea Level Pressure  
Sea Level Pressure 30.03 in    
Wind  
Wind Speed 3 mph (East)    
Max Wind Speed 10 mph    
Max Gust Speed 18 mph    
Visibility 6 miles    
Events Rain    
Averages and records for this station are not official NWS values.
T = Trace of Precipitation, MM = Missing Value Source: NWS Daily Summary

Daily Weather History Graph

Daily Weather History Graph

Search for Another Location

Airport or City:

Trip Planner

Search our weather history database for the weather conditions in past years. The results will help you decide how hot, cold, wet, or windy it might be!

Date:

Astronomy

Jun. 10, 2013 Rise Set
Actual Time 5:22 AM EDT 8:30 PM EDT
Civil Twilight 4:49 AM EDT 9:04 PM EDT
Nautical Twilight 4:05 AM EDT 9:47 PM EDT
Astronomical Twilight 3:14 AM EDT 10:39 PM EDT
Moon 7:10 AM EDT (6/10) 9:54 PM EDT (6/10)
Length of Visible Light 16h 15m
Length of Day
15h 07m
Waxing Crescent, 4% of the Moon is Illuminated
Jun 10
Waxing Crescent
Jun 16
First Quarter
Jun 23
Full
Jun 30
Last Quarter
Jul 8
New

Hourly Weather History & Observations

Time (EDT) Temp. Dew Point Humidity Pressure Visibility Wind Dir Wind Speed Gust Speed Precip Events Conditions
12:54 AM 57.0 °F 55.0 °F 93% 30.17 in 10.0 mi Calm Calm - N/A   Clear
1:54 AM 57.9 °F 55.9 °F 93% 30.17 in 10.0 mi Calm Calm - N/A   Overcast
2:54 AM 59.0 °F 57.0 °F 93% 30.16 in 10.0 mi Calm Calm - N/A   Overcast
3:54 AM 57.9 °F 55.9 °F 93% 30.16 in 10.0 mi Calm Calm - N/A   Overcast
4:54 AM 61.0 °F 57.9 °F 90% 30.14 in 10.0 mi Calm Calm - N/A   Overcast
5:54 AM 61.0 °F 57.9 °F 90% 30.14 in 10.0 mi Calm Calm - N/A   Overcast
6:54 AM 62.1 °F 57.9 °F 86% 30.14 in 10.0 mi Calm Calm - N/A   Overcast
7:54 AM 63.0 °F 57.9 °F 84% 30.14 in 10.0 mi Calm Calm - N/A   Overcast
8:54 AM 64.0 °F 57.9 °F 80% 30.15 in 10.0 mi Calm Calm - 0.00 in Rain Light Rain
9:54 AM 64.9 °F 59.0 °F 81% 30.13 in 10.0 mi NE 5.8 mph - 0.00 in Rain Light Rain
10:54 AM 66.9 °F 61.0 °F 81% 30.12 in 10.0 mi NE 5.8 mph - 0.00 in   Overcast
11:54 AM 70.0 °F 63.0 °F 78% 30.11 in 10.0 mi Variable 3.5 mph - 0.00 in   Overcast
12:54 PM 69.1 °F 63.0 °F 81% 30.09 in 5.0 mi East 6.9 mph - 0.01 in Rain Light Rain
1:07 PM 68.0 °F 64.4 °F 88% 30.09 in 2.5 mi East 8.1 mph - 0.03 in Rain Rain
1:20 PM 66.2 °F 62.6 °F 88% 30.08 in 3.0 mi ESE 6.9 mph - 0.06 in Rain Light Rain
1:33 PM 66.2 °F 62.6 °F 88% 30.08 in 4.0 mi East 5.8 mph - 0.07 in Rain Light Rain
1:54 PM 66.0 °F 63.0 °F 90% 30.07 in 4.0 mi Variable 4.6 mph - 0.11 in Rain Light Rain
2:24 PM 66.2 °F 64.4 °F 94% 30.06 in 3.0 mi ENE 3.5 mph - 0.06 in Rain Rain
2:44 PM 66.2 °F 64.4 °F 94% 30.05 in 3.0 mi ESE 3.5 mph - 0.09 in Rain Rain
2:54 PM 66.9 °F 64.0 °F 90% 30.04 in 3.0 mi SE 3.5 mph - 0.11 in Rain Rain
3:24 PM 66.2 °F 62.6 °F 88% 30.03 in 5.0 mi SSE 4.6 mph - 0.04 in Rain Light Rain
3:37 PM 66.2 °F 62.6 °F 88% 30.02 in 5.0 mi Calm Calm - 0.05 in Rain Light Rain
3:54 PM 66.0 °F 63.0 °F 90% 30.02 in 4.0 mi ESE 3.5 mph - 0.09 in Rain Rain
4:22 PM 66.2 °F 62.6 °F 88% 30.00 in 2.5 mi East 5.8 mph - 0.06 in Rain Heavy Rain
4:40 PM 64.4 °F 62.6 °F 94% 30.00 in 2.5 mi ESE 9.2 mph 18.4 mph 0.12 in Rain Rain
4:54 PM 64.9 °F 62.1 °F 90% 30.00 in 2.0 mi SE 10.4 mph - 0.18 in Rain Heavy Rain
5:13 PM 64.4 °F 62.6 °F 94% 29.99 in 3.0 mi ESE 9.2 mph - 0.06 in Rain Rain
5:20 PM 64.4 °F 62.6 °F 94% 29.98 in 2.5 mi ESE 8.1 mph 16.1 mph 0.08 in Rain Rain
5:30 PM 64.4 °F 60.8 °F 88% 29.98 in 3.0 mi East 5.8 mph - 0.10 in Rain Rain
5:46 PM 64.4 °F 62.6 °F 94% 29.98 in 3.0 mi ESE 5.8 mph - 0.14 in Rain Rain
5:50 PM 64.4 °F 62.6 °F 94% 29.98 in 1.8 mi East 4.6 mph - 0.19 in Rain Heavy Rain
5:54 PM 64.0 °F 62.1 °F 93% 29.97 in 1.2 mi East 5.8 mph - 0.23 in Rain Heavy Rain
6:11 PM 64.4 °F 62.6 °F 94% 29.98 in 2.5 mi NE 3.5 mph - 0.08 in Rain Rain
6:34 PM 62.6 °F 62.6 °F 100% 29.96 in 3.0 mi ENE 9.2 mph - 0.17 in Rain Rain
6:43 PM 62.6 °F 60.8 °F 94% 29.96 in 1.8 mi ENE 6.9 mph - 0.24 in Rain Heavy Rain
6:54 PM 64.0 °F 61.0 °F 90% 29.96 in 3.0 mi NNE 8.1 mph - 0.26 in Rain Light Rain
7:54 PM 63.0 °F 61.0 °F 93% 29.94 in 10.0 mi ENE 9.2 mph - 0.03 in Rain Light Rain
8:06 PM 62.6 °F 60.8 °F 94% 29.94 in 10.0 mi ENE 9.2 mph - 0.00 in Rain Light Rain
8:54 PM 62.1 °F 61.0 °F 96% 29.91 in 6.0 mi NE 6.9 mph - 0.04 in Rain Light Rain
9:15 PM 62.6 °F 60.8 °F 94% 29.90 in 6.0 mi ENE 6.9 mph - 0.01 in Rain Light Rain
9:54 PM 61.0 °F 60.1 °F 97% 29.88 in 10.0 mi NE 8.1 mph - 0.07 in Rain Light Rain
10:36 PM 60.8 °F 60.8 °F 100% 29.88 in 2.5 mi ENE 6.9 mph - 0.20 in Rain Heavy Rain
10:44 PM 60.8 °F 60.8 °F 100% 29.88 in 5.0 mi ENE 5.8 mph - 0.21 in Rain Light Rain
10:54 PM 61.0 °F 60.1 °F 97% 29.88 in 7.0 mi Variable 3.5 mph - 0.22 in Rain Light Rain
11:54 PM 61.0 °F 60.1 °F 97% 29.85 in 8.0 mi NE 3.5 mph - 0.08 in Rain Light Rain